TimeCST,TemperatureF,Dew PointF,Humidity,Sea Level PressureIn,VisibilityMPH,Wind Direction,Wind SpeedMPH,Gust SpeedMPH,PrecipitationIn,Events,Conditions,WindDirDegrees,DateUTC
12:52 AM,19.9,17.1,89,30.08,8.0,South,9.2,-,N/A,,Clear,170,2013-02-17 06:52:00
1:52 AM,19.0,16.0,88,30.07,7.0,South,9.2,-,N/A,,Clear,170,2013-02-17 07:52:00
2:52 AM,19.9,17.1,89,30.06,9.0,South,9.2,-,N/A,,Clear,170,2013-02-17 08:52:00
3:52 AM,19.9,16.0,85,30.04,10.0,SSE,10.4,-,N/A,,Partly Cloudy,160,2013-02-17 09:52:00
4:52 AM,18.0,15.1,88,30.03,9.0,SSE,10.4,-,N/A,,Clear,160,2013-02-17 10:52:00
5:52 AM,18.0,15.1,88,30.02,10.0,SSE,12.7,-,N/A,,Clear,150,2013-02-17 11:52:00
6:52 AM,19.0,15.1,85,29.99,10.0,SSE,13.8,-,N/A,,Clear,160,2013-02-17 12:52:00
7:52 AM,18.0,15.1,88,29.99,9.0,South,12.7,-,N/A,,Clear,170,2013-02-17 13:52:00
8:52 AM,21.0,17.1,85,29.98,9.0,South,13.8,-,N/A,,Clear,170,2013-02-17 14:52:00
9:52 AM,25.0,19.9,81,29.95,9.0,South,17.3,-,N/A,,Clear,170,2013-02-17 15:52:00
10:52 AM,28.0,21.9,78,29.93,10.0,South,20.7,-,N/A,,Clear,170,2013-02-17 16:52:00
11:52 AM,30.9,24.1,76,29.89,10.0,SSE,20.7,-,N/A,,Clear,160,2013-02-17 17:52:00
12:52 PM,35.1,25.0,67,29.84,10.0,SSE,25.3,-,N/A,,Clear,160,2013-02-17 18:52:00
1:52 PM,37.0,27.0,67,29.80,10.0,SSE,23.0,-,N/A,,Clear,150,2013-02-17 19:52:00
2:52 PM,37.9,28.0,68,29.76,10.0,SSE,21.9,29.9,N/A,,Clear,150,2013-02-17 20:52:00
3:52 PM,37.0,28.9,73,29.73,10.0,SSE,23.0,29.9,N/A,,Clear,150,2013-02-17 21:52:00
4:52 PM,37.0,28.9,73,29.70,10.0,SE,19.6,-,N/A,,Clear,140,2013-02-17 22:52:00
5:52 PM,35.1,28.0,76,29.68,10.0,SSE,23.0,28.8,N/A,,Clear,150,2013-02-17 23:52:00
6:52 PM,35.1,27.0,72,29.68,10.0,SSE,21.9,-,N/A,,Clear,150,2013-02-18 00:52:00
7:52 PM,34.0,27.0,75,29.66,10.0,SSE,21.9,28.8,N/A,,Clear,150,2013-02-18 01:52:00
8:52 PM,34.0,27.0,75,29.63,10.0,SSE,19.6,-,N/A,,Clear,160,2013-02-18 02:52:00
9:52 PM,36.0,27.0,70,29.61,10.0,South,24.2,33.4,N/A,,Clear,170,2013-02-18 03:52:00
11:52 PM,34.0,28.0,79,29.59,10.0,South,13.8,-,N/A,,Clear,190,2013-02-18 05:52:00